Weather History for LHKE - November, 2012

Change the Weather History Date:

Tuesday, November 20, 2012

  Actual Average (LHBP) Record (LHBP)
Temperature  
Mean Temperature 36 °F -  
Max Temperature 44 °F 44 °F 59 °F (2003)
Min Temperature 28 °F 32 °F 15 °F (1999)
Degree Days  
Heating Degree Days 29    
Moisture  
Dew Point 38 °F    
Average Humidity 100    
Maximum Humidity 100    
Minimum Humidity 93    
Precipitation  
Precipitation 0.00 in - - ()
Sea Level Pressure  
Sea Level Pressure 30.20 in    
Wind  
Wind Speed 3 mph ()    
Max Wind Speed 9 mph    
Max Gust Speed -    
Visibility 0.5 miles    
Events Fog    
Averages and records for this station are not official NWS values.
T = Trace of Precipitation, MM = Missing Value Source: Averaged Metar Reports

Daily Weather History Graph

Daily Weather History Graph

Search for Another Location

Airport or City:

Trip Planner

Search our weather history database for the weather conditions in past years. The results will help you decide how hot, cold, wet, or windy it might be!

Date:

Astronomy

Nov. 20, 2012 Rise Set
Actual Time 6:51 AM CET 4:01 PM CET
Civil Twilight 6:17 AM CET 4:35 PM CET
Nautical Twilight 5:40 AM CET 5:12 PM CET
Astronomical Twilight 5:04 AM CET 5:48 PM CET
Moon 12:04 PM CET (11/20) 11:28 PM CET (11/20)
Length of Visible Light 10h 17m
Length of Day
9h 09m
Waxing Crescent, 48% of the Moon is Illuminated
Nov 20
Waxing Crescent
Nov 20
First Quarter
Nov 28
Full
Dec 6
Last Quarter
Dec 13
New

Hourly Weather History & Observations

Time (CET) Temp. Windchill Dew Point Humidity Pressure Visibility Wind Dir Wind Speed Gust Speed Precip Events Conditions
12:03 AM 35.6 °F - 33.8 °F 93% 30.15 in 0.5 mi Calm Calm - N/A Fog Fog
12:14 AM 33.8 °F - 33.8 °F 100% 30.15 in 0.4 mi North 2.2 mph - N/A Fog Fog
12:15 AM 33.8 °F - 33.8 °F 100% 30.15 in 0.2 mi North 2.2 mph - N/A Fog Fog
12:45 AM 33.8 °F - 33.8 °F 100% 30.15 in 0.2 mi Calm Calm - N/A Fog Fog
1:15 AM 33.8 °F - 33.8 °F 100% 30.15 in 0.2 mi Calm Calm - N/A Fog Fog
1:45 AM 32.0 °F - 32.0 °F 100% 30.18 in 0.1 mi Calm Calm - N/A Fog Fog
2:15 AM 32.0 °F - 32.0 °F 100% 30.18 in 0.1 mi Calm Calm - N/A Fog Fog
2:45 AM 30.2 °F - 30.2 °F 100% 30.18 in 0.1 mi Calm Calm - N/A Fog Fog
3:15 AM 30.2 °F - 30.2 °F 100% 30.18 in 0.1 mi Calm Calm - N/A Fog Fog
3:45 AM 30.2 °F - 30.2 °F 100% 30.18 in 0.1 mi Calm Calm - N/A Fog Fog
4:15 AM 30.2 °F - 30.2 °F 100% 30.18 in 0.1 mi Calm Calm - N/A Fog Fog
4:45 AM 30.2 °F - 30.2 °F 100% 30.18 in 0.1 mi Calm Calm - N/A Fog Light Freezing Fog
5:15 AM 30.2 °F - 30.2 °F 100% 30.18 in 0.1 mi Calm Calm - N/A Fog Light Freezing Fog
5:45 AM - - - N/A% - 0.5 mi Variable 4.5 mph - N/A Fog Fog
6:15 AM 28.4 °F - 28.4 °F 100% 30.18 in 0.2 mi North 2.2 mph - N/A Fog Light Freezing Fog
6:45 AM 28.4 °F - 28.4 °F 100% 30.18 in 0.2 mi NW 2.2 mph - N/A Fog Light Freezing Fog
7:15 AM 28.4 °F - 28.4 °F 100% 30.18 in 0.1 mi North 2.2 mph - N/A Fog Light Freezing Fog
7:45 AM 28.4 °F - 28.4 °F 100% 30.21 in 0.1 mi North 2.2 mph - N/A Fog Light Freezing Fog
8:15 AM 32.0 °F - 32.0 °F 100% 30.21 in 0.1 mi NNE 2.2 mph - N/A Fog Light Freezing Fog
8:45 AM - - - N/A% - 0.4 mi Variable 4.5 mph - N/A Fog Fog
8:58 AM 35.6 °F - 35.6 °F 100% 30.21 in 0.4 mi NE 2.2 mph - N/A Fog Fog
9:09 AM 37.4 °F - 37.4 °F 100% 30.21 in 0.5 mi NE 2.2 mph - N/A Fog Fog
9:15 AM 37.4 °F - 37.4 °F 100% 30.21 in 0.5 mi NE 2.2 mph - N/A Fog Fog
9:27 AM 39.2 °F 36.0 °F 39.2 °F 100% 30.21 in 0.6 mi NE 4.5 mph - N/A   Scattered Clouds
9:45 AM 39.2 °F - 39.2 °F 100% 30.21 in 0.9 mi NE 2.2 mph - N/A   Scattered Clouds
10:15 AM 41.0 °F 38.1 °F 41.0 °F 100% 30.21 in 1.2 mi NNE 4.5 mph - N/A   Scattered Clouds
10:45 AM 42.8 °F 40.2 °F 42.8 °F 100% 30.21 in 1.6 mi NE 4.5 mph - N/A   Scattered Clouds
10:56 AM 42.8 °F 37.6 °F 42.8 °F 100% 30.21 in 0.9 mi NNE 8.9 mph - N/A   Scattered Clouds
11:15 AM 41.0 °F 36.5 °F 41.0 °F 100% 30.21 in 0.6 mi NE 6.7 mph - N/A   Mostly Cloudy
11:45 AM - - - N/A% - 0.9 mi Variable 4.5 mph - N/A   Scattered Clouds
12:15 PM 42.8 °F 38.7 °F 42.8 °F 100% 30.21 in 0.6 mi NE 6.7 mph - N/A Fog Fog
12:45 PM 44.6 °F 40.8 °F 44.6 °F 100% 30.21 in 0.5 mi NNE 6.7 mph - N/A Fog Fog
1:15 PM 44.6 °F 39.8 °F 42.8 °F 93% 30.18 in 0.7 mi NNE 8.9 mph - N/A   Overcast
1:45 PM 44.6 °F 39.8 °F 44.6 °F 100% 30.18 in 0.9 mi NNE 8.9 mph - N/A   Mostly Cloudy
2:15 PM 44.6 °F 40.8 °F 44.6 °F 100% 30.18 in 1.6 mi NNE 6.7 mph - N/A   Mostly Cloudy
2:45 PM - - - N/A% - 1.9 mi NE 8.9 mph - N/A   Mostly Cloudy
3:15 PM 42.8 °F 38.7 °F 42.8 °F 100% 30.21 in 0.9 mi NNE 6.7 mph - N/A   Overcast
3:36 PM 44.6 °F 40.8 °F 44.6 °F 100% 30.21 in 0.5 mi NE 6.7 mph - N/A Fog Fog
3:40 PM - - - N/A% - 1.9 mi NE 8.9 mph - N/A   Mostly Cloudy
3:45 PM 44.6 °F 40.8 °F 44.6 °F 100% 30.21 in 0.5 mi NE 6.7 mph - N/A Fog Fog
4:15 PM 44.6 °F 42.3 °F 44.6 °F 100% 30.21 in 0.5 mi NE 4.5 mph - N/A Fog Fog
5:15 PM 42.8 °F - 42.8 °F 100% 30.21 in 0.5 mi ENE 2.2 mph - N/A Fog Fog
5:36 PM 42.8 °F - 42.8 °F 100% 30.21 in 0.2 mi East 2.2 mph - N/A Fog Fog
5:45 PM - - - N/A% - 0.5 mi Variable 4.5 mph - N/A Fog Fog
6:15 PM 42.8 °F 40.2 °F 42.8 °F 100% 30.21 in 0.2 mi ENE 4.5 mph - N/A Fog Fog
6:45 PM 42.8 °F 40.2 °F 42.8 °F 100% 30.21 in 0.1 mi ENE 4.5 mph - N/A Fog Fog
7:15 PM 41.0 °F 38.1 °F 41.0 °F 100% 30.21 in 0.1 mi ENE 4.5 mph - N/A Fog Fog
7:45 PM 41.0 °F 36.5 °F 41.0 °F 100% 30.21 in 0.1 mi ENE 6.7 mph - N/A Fog Fog
8:15 PM 41.0 °F 38.1 °F 41.0 °F 100% 30.24 in 0.1 mi NE 4.5 mph - N/A Fog Fog
8:45 PM - - - N/A% - 0.1 mi Variable 4.5 mph - N/A Fog Fog
9:15 PM 41.0 °F 38.1 °F 41.0 °F 100% 30.24 in 0.2 mi NE 4.5 mph - N/A Fog Fog
9:45 PM 39.2 °F 36.0 °F 39.2 °F 100% 30.24 in 0.2 mi NE 4.5 mph - N/A Fog Fog
10:15 PM 39.2 °F 34.4 °F 39.2 °F 100% 30.24 in 0.1 mi NE 6.7 mph - N/A Fog Fog
10:45 PM 39.2 °F 34.4 °F 39.2 °F 100% 30.24 in 0.1 mi NE 6.7 mph - N/A Fog Fog
11:15 PM 39.2 °F 34.4 °F 39.2 °F 100% 30.24 in 0.1 mi NE 6.7 mph - N/A Fog Fog
11:45 PM - - - N/A% - 0.5 mi North - - N/A Fog Fog